Location: Mahannah Oil Field
(37.4664°N, 96.6003°W)
Time: 15:24:51
(UTC+00:00)

SR - All Passes

Search period start: 23 January 2021 00:00
Search period end: 02 February 2021 00:00
Orbit: 575 x 880 km, 66.7° (Epoch: 22 January)

Date Brightness Start Highest point End Pass type
(mag) Time Alt. Az. Time Alt. Az. Time Alt. Az.
23 Jan - 09:31:00 10° ESE 09:32:41 12° ESE 09:34:24 10° E visible
23 Jan - 11:09:19 10° SW 11:13:56 66° WNW 11:19:01 10° NNE visible
23 Jan - 18:12:09 10° NNE 18:13:54 11° NE 18:15:39 10° ENE daylight
23 Jan - 19:51:21 10° NNW 19:57:09 60° ENE 20:03:00 10° SE daylight
23 Jan - 21:34:40 10° WNW 21:38:47 20° WSW 21:42:55 10° SSW daylight
24 Jan - 10:19:42 10° S 10:24:13 56° ESE 10:29:11 10° NE visible
24 Jan - 12:03:25 10° W 12:06:45 18° NW 12:10:18 10° N visible
24 Jan - 19:01:57 10° N 19:07:11 33° NE 19:12:27 10° ESE daylight
24 Jan - 20:43:55 10° NW 20:49:20 39° WSW 20:54:46 10° S daylight
25 Jan - 09:30:59 10° SSE 09:34:45 25° ESE 09:38:48 10° NE visible
25 Jan - 11:12:17 10° WSW 11:16:35 34° NW 11:21:17 10° N visible
25 Jan - 18:12:58 10° N 18:17:00 19° NE 18:21:04 10° E daylight
25 Jan - 19:53:50 10° NNW 19:59:43 78° WSW 20:05:37 10° SSE daylight
26 Jan - 08:44:18 10° ESE 08:45:29 11° E 08:46:41 10° E night (unlit)
26 Jan - 10:22:01 10° SW 10:26:40 71° WNW 10:31:48 10° NNE visible
26 Jan - 12:08:42 10° NW 12:09:50 11° NW 12:10:58 10° NNW visible
26 Jan - 17:25:19 10° NNE 17:26:36 11° NE 17:27:53 10° NE daylight
26 Jan - 19:04:09 10° NNW 19:09:55 56° ENE 19:15:43 10° SE daylight
26 Jan - 20:47:16 10° WNW 20:51:36 21° WSW 20:55:54 10° SSW daylight
27 Jan - 09:32:29 10° S 09:36:59 52° ESE 09:41:56 10° NE visible
27 Jan - 11:15:56 10° W 11:19:27 19° NW 11:23:11 10° N visible
27 Jan - 18:14:46 10° N 18:19:55 31° NE 18:25:06 10° ESE daylight
27 Jan - 19:56:37 10° NW 20:02:08 42° WSW 20:07:38 10° S daylight
28 Jan - 08:43:51 10° SSE 08:47:32 23° ESE 08:51:29 10° NE night (unlit)
28 Jan - 10:24:55 10° WSW 10:29:18 36° NW 10:34:06 10° NNE visible
28 Jan - 17:25:50 10° N 17:29:43 18° NE 17:33:38 10° E daylight
28 Jan - 19:06:35 10° NNW 19:12:30 82° WSW 19:18:24 10° SSE daylight
28 Jan - 20:52:39 10° W 20:53:42 10° W 20:54:47 10° WSW daylight
29 Jan - 09:34:43 10° SSW 09:39:24 77° WNW 09:44:35 10° NNE visible
29 Jan - 11:20:50 10° WNW 11:22:30 11° NW 11:24:13 10° NNW visible
29 Jan - 16:38:52 10° NE 16:39:17 10° NE 16:39:42 10° NE daylight
29 Jan - 18:16:56 10° NNW 18:22:41 53° ENE 18:28:26 10° SE daylight
29 Jan - 19:59:54 10° WNW 20:04:25 23° WSW 20:08:52 10° SSW daylight
30 Jan - 08:45:16 10° S 08:49:45 48° ESE 08:54:40 10° NE night (unlit)
30 Jan - 10:28:28 10° W 10:32:09 21° NW 10:36:04 10° N visible
30 Jan - 17:27:36 10° N 17:32:39 29° NE 17:37:46 10° ESE daylight
30 Jan - 19:09:20 10° NW 19:14:55 45° WSW 19:20:29 10° S daylight
31 Jan - 07:56:44 10° SSE 08:00:19 22° ESE 08:04:08 10° ENE night (unlit)
31 Jan - 09:37:33 10° SW 09:42:02 39° NW 09:46:55 10° NNE visible
31 Jan - 16:38:42 10° N 16:42:26 17° NE 16:46:10 10° E daylight
31 Jan - 18:19:20 10° NNW 18:25:16 87° WSW 18:31:10 10° SSE daylight
31 Jan - 20:04:41 10° W 20:06:32 11° WSW 20:08:21 10° WSW daylight
01 Feb - 08:47:25 10° SSW 08:52:08 83° WNW 08:57:22 10° NNE night (unlit)
01 Feb - 10:33:07 10° WNW 10:35:11 12° NW 10:37:19 10° NNW visible
01 Feb - 17:29:43 10° NNW 17:35:26 50° ENE 17:41:09 10° SE daylight
01 Feb - 19:12:34 10° NW 19:17:12 24° WSW 19:21:49 10° SSW daylight
